Crystal River, FL

9:31 AM EST on February 12, 2016 (GMT -0500)
Crystal River

Weather History for KCGC - October, 2011

Change the Weather History Date:

Saturday, October 8, 2011

  Actual Average (KBKV) Record (KBKV)
Temperature  
Mean Temperature 73 °F -  
Max Temperature 78 °F 83 °F - (-1)
Min Temperature 68 °F 63 °F - (-1)
Cooling Degree Days 8    
Growing Degree Days 23 (Base 50)    
Moisture  
Dew Point 66 °F    
Average Humidity 81    
Maximum Humidity 88    
Minimum Humidity 61    
Precipitation  
Precipitation 0.00 in - - ()
Sea Level Pressure  
Sea Level Pressure 30.10 in    
Wind  
Wind Speed 10 mph (ENE)    
Max Wind Speed 23 mph    
Max Gust Speed 34 mph    
Visibility 10 miles    
Events      
Averages and records for this station are not official NWS values.
T = Trace of Precipitation, MM = Missing Value Source: NWS Daily Summary

Daily Weather History Graph

Daily Weather History Graph

Search for Another Location

Airport or City:

Trip Planner

Search our weather history database for the weather conditions in past years. The results will help you decide how hot, cold, wet, or windy it might be!

Date:

Astronomy

Oct. 08, 2011 Rise Set
Actual Time 7:27 AM EDT 7:08 PM EDT
Civil Twilight 7:03 AM EDT 7:31 PM EDT
Nautical Twilight 6:35 AM EDT 7:59 PM EDT
Astronomical Twilight 6:08 AM EDT 8:26 PM EDT
Moon 5:07 PM EDT (10/8) 4:26 AM EDT (10/8)
Length of Visible Light 12h 28m
Length of Day
11h 41m
Waxing Gibbous, 90% of the Moon is Illuminated
Oct 8
Waxing Gibbous
Oct 11
Full
Oct 19
Last Quarter
Oct 26
New
Nov 2
First Quarter

Hourly Weather History & Observations

Time (EDT) Temp. Dew Point Humidity Pressure Visibility Wind Dir Wind Speed Gust Speed Precip Events Conditions
12:35 AM 69.8 °F 66.2 °F 88% 30.14 in 10.0 mi ENE 8.1 mph - N/A   Clear
12:55 AM 69.8 °F 66.2 °F 88% 30.13 in 10.0 mi East 6.9 mph - N/A   Clear
1:15 AM 69.8 °F 66.2 °F 88% 30.13 in 10.0 mi ENE 8.1 mph - N/A   Clear
1:35 AM 69.8 °F 64.4 °F 83% 30.13 in 10.0 mi ENE 9.2 mph - N/A   Clear
1:55 AM 69.8 °F 64.4 °F 83% 30.12 in 10.0 mi ENE 6.9 mph - N/A   Partly Cloudy
2:15 AM 69.8 °F 64.4 °F 83% 30.13 in 10.0 mi ENE 11.5 mph - N/A   Clear
2:35 AM 69.8 °F 64.4 °F 83% 30.13 in 10.0 mi ENE 8.1 mph - N/A   Clear
2:55 AM 69.8 °F 64.4 °F 83% 30.13 in 10.0 mi ENE 8.1 mph - N/A   Clear
3:15 AM 69.8 °F 64.4 °F 83% 30.12 in 10.0 mi ENE 9.2 mph - N/A   Partly Cloudy
3:35 AM 69.8 °F 64.4 °F 83% 30.11 in 10.0 mi ENE 9.2 mph - N/A   Partly Cloudy
3:55 AM 69.8 °F 64.4 °F 83% 30.10 in 10.0 mi ENE 8.1 mph - N/A   Clear
4:15 AM 68.0 °F 64.4 °F 88% 30.08 in 10.0 mi NE 8.1 mph - N/A   Clear
4:35 AM 68.0 °F 64.4 °F 88% 30.08 in 10.0 mi NE 5.8 mph - N/A   Clear
4:55 AM 68.0 °F 64.4 °F 88% 30.10 in 10.0 mi East 5.8 mph - N/A   Clear
5:15 AM 68.0 °F 64.4 °F 88% 30.10 in 10.0 mi East 5.8 mph - N/A   Clear
5:35 AM 68.0 °F 64.4 °F 88% 30.10 in 10.0 mi ENE 5.8 mph - N/A   Partly Cloudy
5:55 AM 68.0 °F 64.4 °F 88% 30.10 in 10.0 mi ENE 6.9 mph - N/A   Partly Cloudy
6:35 AM 69.8 °F 66.2 °F 88% 30.10 in 10.0 mi ENE 10.4 mph - N/A   Partly Cloudy
6:55 AM 69.8 °F 66.2 °F 88% 30.10 in 10.0 mi East 10.4 mph - N/A   Clear
7:15 AM 69.8 °F 66.2 °F 88% 30.10 in 10.0 mi East 10.4 mph - N/A   Clear
7:35 AM 69.8 °F 66.2 °F 88% 30.10 in 10.0 mi ENE 9.2 mph - N/A   Scattered Clouds
7:55 AM 69.8 °F 66.2 °F 88% 30.11 in 10.0 mi ENE 9.2 mph - N/A   Partly Cloudy
8:15 AM 69.8 °F 66.2 °F 88% 30.12 in 10.0 mi East 11.5 mph - N/A   Clear
8:35 AM 71.6 °F 66.2 °F 83% 30.12 in 10.0 mi ENE 11.5 mph - N/A   Scattered Clouds
8:55 AM 71.6 °F 66.2 °F 83% 30.13 in 10.0 mi ENE 11.5 mph - N/A   Partly Cloudy
9:15 AM 71.6 °F 66.2 °F 83% 30.13 in 10.0 mi East 10.4 mph - N/A   Clear
9:35 AM 71.6 °F 66.2 °F 83% 30.14 in 10.0 mi East 15.0 mph - N/A   Clear
9:55 AM 71.6 °F 66.2 °F 83% 30.15 in 10.0 mi East 17.3 mph - N/A   Clear
10:15 AM 73.4 °F 66.2 °F 78% 30.14 in 10.0 mi East 13.8 mph - N/A   Clear
10:35 AM 73.4 °F 66.2 °F 78% 30.15 in 10.0 mi East 13.8 mph - N/A   Partly Cloudy
10:55 AM 73.4 °F 66.2 °F 78% 30.15 in 10.0 mi East 11.5 mph - N/A   Partly Cloudy
11:15 AM 73.4 °F 66.2 °F 78% 30.15 in 10.0 mi East 10.4 mph - N/A   Mostly Cloudy
11:35 AM 73.4 °F 66.2 °F 78% 30.15 in 10.0 mi East 13.8 mph - N/A   Mostly Cloudy
12:15 PM 73.4 °F 66.2 °F 78% 30.16 in 10.0 mi East 12.7 mph - N/A   Mostly Cloudy
12:35 PM 75.2 °F 66.2 °F 73% 30.14 in 10.0 mi East 13.8 mph - N/A   Overcast
12:55 PM 73.4 °F 64.4 °F 73% 30.13 in 10.0 mi East 18.4 mph - N/A   Mostly Cloudy
1:15 PM 75.2 °F 64.4 °F 69% 30.11 in 10.0 mi East 15.0 mph - N/A   Clear
1:35 PM 75.2 °F 66.2 °F 73% 30.09 in 10.0 mi East 16.1 mph - N/A   Clear
1:55 PM 75.2 °F 64.4 °F 69% 30.08 in 10.0 mi East 15.0 mph - N/A   Clear
2:15 PM 78.8 °F 64.4 °F 61% 30.07 in 10.0 mi East 19.6 mph - N/A   Clear
2:35 PM 78.8 °F 64.4 °F 61% 30.06 in 10.0 mi East 16.1 mph - N/A   Clear
3:15 PM 78.8 °F 66.2 °F 65% 30.07 in 10.0 mi East 17.3 mph 34.5 mph N/A   Scattered Clouds
3:35 PM 78.8 °F 66.2 °F 65% 30.06 in 10.0 mi East 21.9 mph - N/A   Mostly Cloudy
3:55 PM 78.8 °F 66.2 °F 65% 30.07 in 10.0 mi East 23.0 mph 33.4 mph N/A   Mostly Cloudy
4:15 PM 77.0 °F 66.2 °F 69% 30.06 in 10.0 mi East 23.0 mph - N/A   Mostly Cloudy
4:35 PM 75.2 °F 66.2 °F 73% 30.06 in 10.0 mi ENE 17.3 mph - N/A   Mostly Cloudy
4:55 PM 75.2 °F 66.2 °F 73% 30.06 in 10.0 mi ENE 12.7 mph - N/A   Partly Cloudy
5:15 PM 73.4 °F 66.2 °F 78% 30.07 in 10.0 mi East 12.7 mph - N/A   Clear
5:35 PM 71.6 °F 66.2 °F 83% 30.06 in 10.0 mi East 13.8 mph - N/A   Scattered Clouds
5:55 PM 71.6 °F 66.2 °F 83% 30.06 in 10.0 mi ENE 15.0 mph - N/A   Partly Cloudy
6:15 PM 71.6 °F 66.2 °F 83% 30.06 in 10.0 mi ENE 11.5 mph - N/A   Partly Cloudy
6:55 PM 69.8 °F 66.2 °F 88% 30.06 in 10.0 mi East 9.2 mph - N/A   Partly Cloudy
7:15 PM 69.8 °F 66.2 °F 88% 30.06 in 10.0 mi ENE 10.4 mph - N/A   Clear
7:35 PM 69.8 °F 66.2 °F 88% 30.05 in 10.0 mi ENE 11.5 mph - N/A   Clear
7:55 PM 69.8 °F 66.2 °F 88% 30.04 in 10.0 mi ENE 13.8 mph - N/A   Scattered Clouds
8:15 PM 69.8 °F 66.2 °F 88% 30.04 in 10.0 mi ENE 15.0 mph - N/A   Partly Cloudy
8:35 PM 69.8 °F 68.0 °F 94% 30.05 in 10.0 mi East 15.0 mph - N/A   Mostly Cloudy
8:55 PM 71.6 °F 68.0 °F 88% 30.06 in 9.0 mi East 17.3 mph - N/A   Mostly Cloudy
9:15 PM 71.6 °F 68.0 °F 88% 30.07 in 6.0 mi East 17.3 mph - N/A   Overcast
9:35 PM 69.8 °F 68.0 °F 94% 30.08 in 6.0 mi East 15.0 mph - N/A   Overcast
10:15 PM 69.8 °F 68.0 °F 94% 30.08 in 10.0 mi East 8.1 mph - N/A   Mostly Cloudy